LXP203 SCEL-SCIE

Flight info

Callsign LXP203
Flight time 0h 45m
Altitude 31000
Route GELUS5B GELUS UQ809 ARUNI ARUNI6C
Aircraft A321/M-SDE3FGHIRWY/LB1

Departure

Time 2026-04-25 15:34
Airport Comodoro Arturo Merino Benítez International Airport (SCEL)

Arrival

Time 2026-04-25 16:20
Airport Carriel Sur International Airport (SCIE)
Time Latitude Longitude Altitude Speed Heading
2026-04-25 14:42 -33.39711 -70.78953 1565 ft 0 kts 356°
2026-04-25 15:18 -33.39713 -70.78953 1564 ft 2 kts 356°
2026-04-25 15:18 -33.39765 -70.78953 1564 ft 4 kts 11°
2026-04-25 15:18 -33.39788 -70.78963 1564 ft 4 kts 53°
2026-04-25 15:19 -33.39794 -70.78986 1564 ft 4 kts 88°
2026-04-25 15:19 -33.39794 -70.79002 1564 ft 0 kts 88°
2026-04-25 15:24 -33.39793 -70.78961 1564 ft 9 kts 88°
2026-04-25 15:24 -33.39784 -70.78891 1564 ft 8 kts 56°
2026-04-25 15:24 -33.39744 -70.78879 1564 ft 12 kts 359°
2026-04-25 15:25 -33.39596 -70.78885 1564 ft 16 kts 358°
2026-04-25 15:25 -33.39489 -70.78891 1564 ft 15 kts 356°
2026-04-25 15:25 -33.39388 -70.78898 1564 ft 15 kts 357°
2026-04-25 15:25 -33.39257 -70.78904 1564 ft 22 kts 358°
2026-04-25 15:26 -33.39109 -70.78911 1564 ft 21 kts 356°
2026-04-25 15:26 -33.38969 -70.78920 1564 ft 20 kts 358°
2026-04-25 15:26 -33.38837 -70.78925 1564 ft 18 kts 357°
2026-04-25 15:26 -33.38713 -70.78932 1564 ft 17 kts 357°
2026-04-25 15:27 -33.38599 -70.78938 1564 ft 16 kts 358°
2026-04-25 15:27 -33.38492 -70.78944 1564 ft 15 kts 356°
2026-04-25 15:27 -33.38356 -70.79028 1564 ft 15 kts 266°
2026-04-25 15:28 -33.38363 -70.79185 1564 ft 20 kts 267°
2026-04-25 15:28 -33.38368 -70.79343 1564 ft 18 kts 268°
2026-04-25 15:28 -33.38374 -70.79491 1564 ft 17 kts 268°
2026-04-25 15:28 -33.38379 -70.79629 1564 ft 16 kts 266°
2026-04-25 15:29 -33.38386 -70.79787 1564 ft 22 kts 267°
2026-04-25 15:29 -33.38390 -70.79949 1565 ft 14 kts 268°
2026-04-25 15:29 -33.38394 -70.80059 1566 ft 13 kts 268°
2026-04-25 15:29 -33.38318 -70.80109 1566 ft 17 kts 358°
2026-04-25 15:30 -33.38182 -70.80117 1566 ft 22 kts 357°
2026-04-25 15:30 -33.38022 -70.80126 1566 ft 23 kts 358°
2026-04-25 15:30 -33.37869 -70.80133 1566 ft 21 kts 358°
2026-04-25 15:30 -33.37725 -70.80141 1566 ft 20 kts 357°
2026-04-25 15:31 -33.37592 -70.80148 1566 ft 19 kts 357°
2026-04-25 15:31 -33.37465 -70.80154 1566 ft 20 kts 358°
2026-04-25 15:31 -33.37315 -70.80162 1567 ft 22 kts 357°
2026-04-25 15:31 -33.37194 -70.80168 1567 ft 13 kts 358°
2026-04-25 15:32 -33.37115 -70.80216 1568 ft 11 kts 299°
2026-04-25 15:32 -33.37104 -70.80291 1572 ft 8 kts 265°
2026-04-25 15:32 -33.37146 -70.80364 1574 ft 16 kts 204°
2026-04-25 15:33 -33.37201 -70.80374 1573 ft 0 kts 178°
2026-04-25 15:33 -33.37271 -70.80371 1573 ft 39 kts 177°
2026-04-25 15:33 -33.37779 -70.80342 1572 ft 104 kts 177°
2026-04-25 15:33 -33.38682 -70.80293 1575 ft 154 kts 177°
2026-04-25 15:34 -33.39888 -70.80231 1622 ft 188 kts 178°
2026-04-25 15:34 -33.41177 -70.80175 2301 ft 183 kts 177°
2026-04-25 15:34 -33.42444 -70.80115 2879 ft 187 kts 178°
2026-04-25 15:34 -33.43344 -70.80074 2954 ft 203 kts 178°
2026-04-25 15:35 -33.47016 -70.79896 3352 ft 253 kts 178°
2026-04-25 15:35 -33.48844 -70.79770 3771 ft 269 kts 178°
2026-04-25 15:35 -33.50715 -70.79806 4487 ft 270 kts 195°
2026-04-25 15:36 -33.53137 -70.82886 5950 ft 271 kts 258°
2026-04-25 15:36 -33.53334 -70.85149 6667 ft 275 kts 265°
2026-04-25 15:36 -33.53466 -70.87448 7372 ft 278 kts 265°
2026-04-25 15:37 -33.53595 -70.89775 8062 ft 282 kts 265°
2026-04-25 15:37 -33.53728 -70.92131 8711 ft 285 kts 265°
2026-04-25 15:37 -33.53915 -70.94520 9240 ft 289 kts 257°
2026-04-25 15:37 -33.54639 -70.96754 9898 ft 290 kts 237°
2026-04-25 15:38 -33.55968 -70.98554 10571 ft 290 kts 217°
2026-04-25 15:38 -33.57724 -70.99791 11050 ft 301 kts 207°
2026-04-25 15:38 -33.59666 -71.00965 11179 ft 323 kts 207°
2026-04-25 15:38 -33.61698 -71.02182 11393 ft 339 kts 207°
2026-04-25 15:39 -33.63827 -71.03459 11916 ft 344 kts 207°
2026-04-25 15:39 -33.65980 -71.04757 12548 ft 347 kts 207°
2026-04-25 15:39 -33.68139 -71.06068 13201 ft 349 kts 207°
2026-04-25 15:39 -33.70309 -71.07390 13865 ft 350 kts 208°
2026-04-25 15:40 -33.72476 -71.08710 14518 ft 351 kts 208°
2026-04-25 15:40 -33.73216 -71.09161 14730 ft 351 kts 208°
2026-04-25 15:40 -33.76847 -71.11367 15754 ft 353 kts 208°
2026-04-25 15:40 -33.79045 -71.12703 16367 ft 354 kts 207°
2026-04-25 15:41 -33.81247 -71.14045 16937 ft 355 kts 208°
2026-04-25 15:41 -33.83455 -71.15392 17500 ft 357 kts 208°
2026-04-25 15:41 -33.85674 -71.16745 18090 ft 358 kts 208°
2026-04-25 15:41 -33.87894 -71.18100 18641 ft 359 kts 208°
2026-04-25 15:42 -33.90125 -71.19462 19168 ft 360 kts 208°
2026-04-25 15:42 -33.92365 -71.20832 19676 ft 362 kts 208°
2026-04-25 15:42 -33.94614 -71.22209 20162 ft 364 kts 208°
2026-04-25 15:42 -33.96873 -71.23589 20663 ft 365 kts 208°
2026-04-25 15:43 -33.99142 -71.24976 21156 ft 367 kts 208°
2026-04-25 15:43 -34.01421 -71.26372 21643 ft 368 kts 208°
2026-04-25 15:43 -34.03706 -71.27772 22107 ft 369 kts 208°
2026-04-25 15:43 -34.05995 -71.29177 22559 ft 370 kts 208°
2026-04-25 15:44 -34.08291 -71.30588 22973 ft 372 kts 208°
2026-04-25 15:44 -34.10599 -71.32006 23381 ft 373 kts 208°
2026-04-25 15:44 -34.12917 -71.33430 23773 ft 375 kts 208°
2026-04-25 15:44 -34.15242 -71.34862 24156 ft 376 kts 208°
2026-04-25 15:45 -34.17578 -71.36304 24538 ft 378 kts 209°
2026-04-25 15:45 -34.19921 -71.37750 24911 ft 379 kts 209°
2026-04-25 15:45 -34.22273 -71.39197 25292 ft 380 kts 209°
2026-04-25 15:45 -34.23068 -71.39685 25412 ft 381 kts 209°
2026-04-25 15:46 -34.27006 -71.42110 25986 ft 383 kts 210°
2026-04-25 15:46 -34.29383 -71.43577 26315 ft 385 kts 210°
2026-04-25 15:46 -34.31774 -71.45053 26665 ft 386 kts 210°
2026-04-25 15:46 -34.34168 -71.46533 26999 ft 387 kts 210°
2026-04-25 15:47 -34.36567 -71.48016 27315 ft 388 kts 211°
2026-04-25 15:47 -34.38976 -71.49509 27629 ft 389 kts 211°
2026-04-25 15:47 -34.41386 -71.51007 27937 ft 391 kts 211°
2026-04-25 15:47 -34.43808 -71.52509 28246 ft 392 kts 211°
2026-04-25 15:48 -34.46207 -71.53995 28546 ft 393 kts 211°
2026-04-25 15:48 -34.48641 -71.55502 28824 ft 393 kts 211°
2026-04-25 15:48 -34.51081 -71.57018 29096 ft 395 kts 212°
2026-04-25 15:48 -34.53528 -71.58539 29372 ft 396 kts 211°
2026-04-25 15:49 -34.55977 -71.60066 29648 ft 396 kts 212°
2026-04-25 15:49 -34.58430 -71.61596 29917 ft 397 kts 212°
2026-04-25 15:49 -34.60887 -71.63129 30177 ft 398 kts 212°
2026-04-25 15:49 -34.63352 -71.64663 30421 ft 399 kts 212°
2026-04-25 15:50 -34.65831 -71.66206 30663 ft 400 kts 212°
2026-04-25 15:50 -34.68306 -71.67745 30990 ft 399 kts 212°
2026-04-25 15:50 -34.70779 -71.69284 31196 ft 399 kts 212°
2026-04-25 15:50 -34.73215 -71.70803 31235 ft 387 kts 212°
2026-04-25 15:51 -34.76393 -71.72787 31238 ft 381 kts 212°
2026-04-25 15:51 -34.82651 -71.76700 31242 ft 379 kts 212°
2026-04-25 15:52 -34.87337 -71.79640 31249 ft 380 kts 212°
2026-04-25 15:52 -34.92033 -71.82594 31247 ft 380 kts 212°
2026-04-25 15:53 -34.96732 -71.85548 31245 ft 380 kts 212°
2026-04-25 15:53 -35.01436 -71.88491 31239 ft 379 kts 212°
2026-04-25 15:54 -35.06097 -71.91417 31235 ft 379 kts 212°
2026-04-25 15:54 -35.10781 -71.94384 31233 ft 379 kts 212°
2026-04-25 15:55 -35.15465 -71.97344 31232 ft 379 kts 211°
2026-04-25 15:55 -35.20145 -72.00301 31232 ft 379 kts 211°
2026-04-25 15:56 -35.24825 -72.03267 31236 ft 379 kts 211°
2026-04-25 15:56 -35.29500 -72.06237 31239 ft 379 kts 211°
2026-04-25 15:57 -35.34203 -72.09231 31259 ft 387 kts 211°
2026-04-25 15:57 -35.36606 -72.10761 30933 ft 391 kts 211°
2026-04-25 15:57 -35.39028 -72.12298 30250 ft 391 kts 211°
2026-04-25 15:58 -35.41435 -72.13825 29683 ft 388 kts 210°
2026-04-25 15:58 -35.43016 -72.14829 29324 ft 386 kts 210°
2026-04-25 15:58 -35.45388 -72.16340 28726 ft 383 kts 210°
2026-04-25 15:58 -35.47745 -72.17845 28140 ft 381 kts 210°
2026-04-25 15:59 -35.50875 -72.19844 27367 ft 378 kts 210°
2026-04-25 15:59 -35.53203 -72.21329 26788 ft 375 kts 210°
2026-04-25 15:59 -35.54733 -72.22306 26397 ft 374 kts 210°
2026-04-25 15:59 -35.57022 -72.23769 25615 ft 369 kts 210°
2026-04-25 16:00 -35.59278 -72.25212 25070 ft 361 kts 210°
2026-04-25 16:00 -35.60745 -72.26149 24812 ft 357 kts 210°
2026-04-25 16:00 -35.63653 -72.28012 24281 ft 349 kts 210°
2026-04-25 16:00 -35.65788 -72.29380 23887 ft 343 kts 210°
2026-04-25 16:01 -35.67887 -72.30726 23498 ft 338 kts 210°
2026-04-25 16:01 -35.69958 -72.32052 23112 ft 333 kts 210°
2026-04-25 16:01 -35.71997 -72.33362 22729 ft 328 kts 210°
2026-04-25 16:01 -35.74004 -72.34650 22353 ft 324 kts 210°
2026-04-25 16:02 -35.75993 -72.35928 21978 ft 320 kts 210°
2026-04-25 16:02 -35.77952 -72.37190 21595 ft 316 kts 210°
2026-04-25 16:02 -35.79886 -72.38437 21216 ft 312 kts 209°
2026-04-25 16:02 -35.81799 -72.39672 20846 ft 309 kts 209°
2026-04-25 16:03 -35.83689 -72.40893 20482 ft 305 kts 210°
2026-04-25 16:03 -35.85556 -72.42098 20102 ft 301 kts 209°
2026-04-25 16:03 -35.87406 -72.43292 19746 ft 298 kts 209°
2026-04-25 16:03 -35.89228 -72.44490 19364 ft 296 kts 211°
2026-04-25 16:04 -35.91007 -72.45767 18954 ft 295 kts 212°
2026-04-25 16:04 -35.92730 -72.47065 18564 ft 294 kts 213°
2026-04-25 16:04 -35.94463 -72.48391 18162 ft 292 kts 213°
2026-04-25 16:04 -35.96187 -72.49710 17764 ft 291 kts 213°
2026-04-25 16:05 -35.97905 -72.51016 17378 ft 290 kts 212°
2026-04-25 16:05 -35.99619 -72.52312 16988 ft 288 kts 212°
2026-04-25 16:05 -36.03021 -72.54874 16229 ft 285 kts 212°
2026-04-25 16:06 -36.04713 -72.56145 15855 ft 284 kts 213°
2026-04-25 16:06 -36.06400 -72.57410 15480 ft 283 kts 212°
2026-04-25 16:06 -36.08082 -72.58671 15105 ft 283 kts 213°
2026-04-25 16:06 -36.09762 -72.59932 14738 ft 282 kts 213°
2026-04-25 16:07 -36.11439 -72.61193 14367 ft 281 kts 212°
2026-04-25 16:07 -36.12546 -72.62026 14114 ft 281 kts 212°
2026-04-25 16:07 -36.14777 -72.63704 13615 ft 280 kts 212°
2026-04-25 16:07 -36.16441 -72.64957 13239 ft 280 kts 212°
2026-04-25 16:08 -36.18104 -72.66213 12859 ft 279 kts 212°
2026-04-25 16:08 -36.19761 -72.67466 12483 ft 279 kts 212°
2026-04-25 16:08 -36.21414 -72.68717 12103 ft 278 kts 212°
2026-04-25 16:08 -36.23068 -72.69967 11719 ft 278 kts 212°
2026-04-25 16:09 -36.24718 -72.71214 11341 ft 277 kts 212°
2026-04-25 16:09 -36.26360 -72.72456 10821 ft 281 kts 212°
2026-04-25 16:09 -36.28049 -72.73732 10286 ft 286 kts 212°
2026-04-25 16:09 -36.29705 -72.74985 10037 ft 280 kts 212°
2026-04-25 16:10 -36.31345 -72.76232 9872 ft 275 kts 212°
2026-04-25 16:10 -36.32979 -72.77475 9750 ft 276 kts 211°
2026-04-25 16:10 -36.34615 -72.78716 9462 ft 274 kts 211°
2026-04-25 16:10 -36.36242 -72.79945 9093 ft 273 kts 211°
2026-04-25 16:11 -36.37861 -72.81169 8717 ft 273 kts 211°
2026-04-25 16:11 -36.39482 -72.82397 8334 ft 272 kts 211°
2026-04-25 16:11 -36.41102 -72.83612 7953 ft 271 kts 210°
2026-04-25 16:11 -36.42712 -72.84813 7576 ft 270 kts 210°
2026-04-25 16:12 -36.44316 -72.86008 7202 ft 268 kts 211°
2026-04-25 16:12 -36.45911 -72.87195 6821 ft 265 kts 210°
2026-04-25 16:12 -36.47460 -72.88351 6454 ft 256 kts 210°
2026-04-25 16:12 -36.48457 -72.89099 6239 ft 249 kts 210°
2026-04-25 16:13 -36.50383 -72.90547 5772 ft 235 kts 210°
2026-04-25 16:13 -36.51807 -72.91546 5455 ft 234 kts 204°
2026-04-25 16:13 -36.53285 -72.92389 5137 ft 234 kts 204°
2026-04-25 16:13 -36.54749 -72.93240 4841 ft 228 kts 204°
2026-04-25 16:14 -36.56144 -72.94054 4503 ft 214 kts 204°
2026-04-25 16:14 -36.57455 -72.94817 4218 ft 203 kts 204°
2026-04-25 16:14 -36.58682 -72.95529 3948 ft 186 kts 204°
2026-04-25 16:14 -36.59817 -72.96186 3700 ft 176 kts 204°
2026-04-25 16:15 -36.60910 -72.96819 3463 ft 170 kts 205°
2026-04-25 16:15 -36.61970 -72.97431 3210 ft 165 kts 204°
2026-04-25 16:15 -36.62979 -72.98017 2982 ft 155 kts 203°
2026-04-25 16:15 -36.63936 -72.98573 2776 ft 150 kts 204°
2026-04-25 16:16 -36.64883 -72.99118 2577 ft 148 kts 205°
2026-04-25 16:16 -36.65797 -72.99646 2371 ft 143 kts 205°
2026-04-25 16:16 -36.66693 -73.00166 2160 ft 142 kts 205°
2026-04-25 16:16 -36.67586 -73.00684 1964 ft 141 kts 206°
2026-04-25 16:17 -36.68470 -73.01199 1768 ft 140 kts 206°
2026-04-25 16:17 -36.69354 -73.01712 1571 ft 140 kts 206°
2026-04-25 16:17 -36.70236 -73.02226 1371 ft 142 kts 206°
2026-04-25 16:17 -36.71127 -73.02741 1174 ft 142 kts 206°
2026-04-25 16:18 -36.72021 -73.03258 988 ft 142 kts 206°
2026-04-25 16:18 -36.72309 -73.03424 916 ft 142 kts 207°
2026-04-25 16:18 -36.73804 -73.04305 587 ft 141 kts 208°
2026-04-25 16:18 -36.74693 -73.04831 409 ft 142 kts 206°
2026-04-25 16:19 -36.75576 -73.05341 215 ft 142 kts 207°
2026-04-25 16:19 -36.76464 -73.05860 64 ft 135 kts 207°
2026-04-25 16:19 -36.77200 -73.06293 65 ft 88 kts 204°
2026-04-25 16:20 -36.77849 -73.06660 65 ft 29 kts 204°
2026-04-25 16:20 -36.77954 -73.06685 61 ft 10 kts 146°
2026-04-25 16:20 -36.78001 -73.06570 61 ft 5 kts 116°
2026-04-25 16:21 -36.77989 -73.06503 61 ft 13 kts 37°
2026-04-25 16:21 -36.77888 -73.06441 58 ft 17 kts 25°
2026-04-25 16:21 -36.77783 -73.06378 53 ft 16 kts 26°
2026-04-25 16:21 -36.77687 -73.06322 52 ft 15 kts 25°
2026-04-25 16:22 -36.77611 -73.06279 56 ft 6 kts 24°
2026-04-25 16:22 -36.77563 -73.06248 59 ft 12 kts 26°
2026-04-25 16:22 -36.77504 -73.06191 61 ft 9 kts 76°
2026-04-25 16:22 -36.77521 -73.06119 58 ft 8 kts 111°
2026-04-25 16:23 -36.77542 -73.06056 56 ft 7 kts 124°
2026-04-25 16:23 -36.77589 -73.06037 54 ft 3 kts 169°
2026-04-25 16:23 -36.77602 -73.06034 60 ft 0 kts 168°
2026-04-25 16:23 -36.77603 -73.06033 55 ft 0 kts 168°